Location: Écuvilly
(49.6505°N, 2.9206°E)
Time: 17:59:40
(UTC+00:00)

Meteor 2-3 Rocket - Pass Details

Date: 17 November 2025
Orbit: 841 x 884 km, 81.2° (Epoch: 09 December)

Event Time Altitude Azimuth Distance (km) Brightness Sun altitude
Rises 18:37:31 0° 347° (NNW) 3,469 7.0 -24.8°
Reaches altitude 10° 18:39:58 10° 347° (NNW) 2,521 6.3 -25.2°
Maximum altitude 18:45:42 85° 260° (W) 869 3.7 -26.1°
Enters shadow 18:50:00 18° 173° (S) 1,974 5.5 -26.8°
